This demonstration page uses our WeatherBlox Daily Observations layout. Learn more.

Left ArrowRight Arrow

39.92423, -83.80882

Hourly Observations for August 18, 2019

Temp ( °F °C ) Dew Point ( °F °C ) Humidity (%) Winds ( mph kmh ) Pressure ( in mb ) Visibility ( mi km ) Precip ( " mm )
12:56 am 00:56 Clear 74 23.3 70 21.1 88 88 SSW 5 7 29.96 1015 10 16.0934 N/A
1:56 am 01:56 Clear 74 23.3 71 21.7 91 91 SSW 3 6 29.94 1014 10 16.0934 N/A
2:56 am 02:56 Clear 74 23.3 71 21.7 91 91 SSW 3 6 29.94 1014 10 16.0934 N/A
3:56 am 03:56 Clear 73 22.8 71 21.7 94 94 SSW 6 9 29.95 1014 10 16.0934 N/A
4:56 am 04:56 Clear 73 22.8 71 21.7 94 94 SSW 3 6 29.93 1014 10 16.0934 N/A
5:56 am 05:56 Clear 70 21.1 70 21.1 100 100 N N/A 29.94 1014 10 16.0934 N/A
6:56 am 06:56 Sunny 68 20 68 20 100 100 N N/A 29.96 1015 7 11.26538 N/A
7:56 am 07:56 Sunny 71 21.7 71 21.7 100 100 S 5 7 29.96 1015 9 14.48406 N/A
8:56 am 08:56 Sunny 75 23.9 72 22.2 90 90 SE 5 7 29.98 1015 10 16.0934 N/A
9:56 am 09:56 Sunny 79 26.1 73 22.8 82 82 SW 5 7 29.97 1015 10 16.0934 N/A
10:56 am 10:56 Sunny 83 28.3 74 23.3 74 74 VRB 7 11 29.98 1015 10 16.0934 N/A
11:56 am 11:56 Sunny 87 30.6 74 23.3 65 65 SW 12 19 29.97 1015 10 16.0934 N/A
12:56 pm 12:56 Partly Cloudy 88 31.1 72 22.2 59 59 SSW 8 13 29.97 1015 10 16.0934 N/A
1:56 pm 13:56 Mostly Cloudy 88 31.1 71 21.7 57 57 SW 10 17 29.96 1015 10 16.0934 N/A
2:56 pm 14:56 Mostly Cloudy 90 32.2 70 21.1 52 52 SW 9 15 29.95 1014 10 16.0934 N/A
3:56 pm 15:56 Partly Cloudy 90 32.2 71 21.7 54 54 SW 12 19 29.93 1014 10 16.0934 N/A
4:56 pm 16:56 Mostly Sunny 91 32.8 70 21.1 50 50 SSW 8 13 29.92 1013 10 16.0934 N/A
5:56 pm 17:56 Sunny 89 31.7 71 21.7 55 55 S 9 15 29.9 1013 10 16.0934 N/A
6:56 pm 18:56 Sunny 86 30 71 21.7 61 61 S 7 11 29.88 1012 10 16.0934 N/A
7:56 pm 19:56 Sunny 83 28.3 71 21.7 67 67 S 6 9 29.87 1012 10 16.0934 N/A
8:56 pm 20:56 Clear 80 26.7 72 22.2 76 76 SSW 5 7 29.88 1012 10 16.0934 N/A
9:56 pm 21:56 Clear 81 27.2 72 22.2 74 74 SSW 8 13 29.91 1013 10 16.0934 N/A
10:56 pm 22:56 Mostly Cloudy 80 26.7 67 19.4 64 64 WNW 25 41 29.97 1015 10 16.0934 N/A
11:56 pm 23:56 Partly Cloudy with Light Rain 72 22.2 67 19.4 84 84 NW 12 19 29.99 1016 10 16.0934 0.001 0.001

Powered by AerisWeather